Regional Weather Roundup
Issued by NWS

Home | Current Version | Previous Version | Text Only | Print | Product List | Glossary On
Versions: 1 2 3 4 5 6 7 8 9 10 11 12 13 14 15 16 17 18 19 20 21 22 23 24 25 26 27 28 29 30 31 32 33 34 35 36 37 38 39 40 41 42 43 44 45 46 47 48 49 50
000
ASUS43 KMPX 182310
RWRMN
WEATHER ROUNDUP FOR MINNESOTA
NATIONAL WEATHER SERVICE TWIN CITIES/CHANHASSEN MN
500 PM CST SUN FEB 18 2018


NOTE: "FAIR" INDICATES FEW OR NO CLOUDS BELOW 12,000 FEET WITH NO
SIGNIFICANT WEATHER AND/OR OBSTRUCTIONS TO VISIBILITY. N/A MEANS
CURRENT SKY AND/OR WEATHER CONDITIONS ARE NOT AVAILABLE.

MNZ060>063-068>070-190000-
   Twin Cities Metro

CITY           SKY/WX    TMP DP  RH WIND       PRES   REMARKS
TWIN CITIES    CLOUDY    44  30  57 S10       29.62S
ST PAUL        FAIR      40  30  67 S14       29.63S
CRYSTAL        FAIR      42  29  59 S8        29.60S
BLAINE         CLOUDY    45  30  57 S10G23    29.61R
LAKEVILLE      FAIR      39  30  70 S12       29.62R
EDEN PRAIRIE   FAIR      42  30  62 S8        29.59S
SOUTH ST PAUL  FAIR      41  30  65 S12       29.62F
LAKE ELMO      FAIR      39  32  75 S12G17    29.64S
$$
MNZ001>005-007-008-013>017-022>024-027-028-190000-
   Northwest Minnesota

CITY           SKY/WX    TMP DP  RH WIND       PRES   REMARKS
BEMIDJI        CLOUDY    16  11  82 N14       29.76R WCI   1
HALLOCK        FAIR      14   1  57 N12       29.94R WCI   0
WARROAD        FAIR      10   3  72 N12       29.91R WCI  -4
THIEF RVR FALL LGT SNOW  11   5  77 N16       29.88R VSB 1   WCI  -6
CROOKSTON      FAIR      12   7  79 N17       29.90R WCI  -5
FOSSTON        FAIR      14   7  73 N14       29.80R WCI  -1
DETROIT LAKES  FAIR      21  14  73 N12       29.73R WCI   9
MOORHEAD       MOCLDY    16  10  79 N23       29.81R WCI  -2
PARK RAPIDS    CLOUDY    19  13  77 NE10G18   29.70R WCI   7
MAHNOMEN       MOCLDY    15  10  81 N16       29.78R WCI  -1
$$
MNZ006-009>011-018-025>026-190000-
   North Central Minnesota

CITY           SKY/WX    TMP DP  RH WIND       PRES   REMARKS
BAUDETTE       MOCLDY    11   4  73 NE12      29.85R WCI  -3
FLAG ISLAND    FAIR       9   1  72 NE12      29.92R WCI  -6
INTL FALLS     CLOUDY    11   6  81 NE10G20   29.85R WCI  -3
WASKISH        CLOUDY    12   7  79 NE10G17   29.81S WCI  -1
BIG FORK       LGT SNOW  16  10  79 N7        29.77R WCI   6
LONGVILLE      CLOUDY    19  14  79 NE6       29.73R WCI  11
GRAND RAPIDS   FLURRIES  19  15  84 N8        29.74R WCI   9
CRANE LAKE     LGT SNOW  10   7  85 N3        29.85R
ORR            LGT SNOW  12   7  79 N6        29.77R WCI   3
COOK           LGT SNOW  16  12  86 NE6       29.77R WCI   7
WALKER         CLOUDY    18  13  79 N7        29.73R WCI   9
$$
MNZ012-019>021-037-190000-
   Northeast Minnesota

CITY           SKY/WX    TMP DP  RH WIND       PRES   REMARKS
DULUTH         LGT SNOW  23  19  85 E10       29.67S VSB 3/4 WCI  12
ELY            LGT SNOW  12  10  92 NE7       29.76S WCI   2
HIBBING        LGT SNOW  17  13  84 N9        29.72R FOG     WCI   6
EVELETH        LGT SNOW N/A N/A N/A NE8       29.73R
DULUTH HARBOR  LGT SNOW  27  25  93 NE23      29.72S VSB 3/4 WCI  12
TWO HARBORS    LGT SNOW  27  21  80 NE10G17   29.69R VSB 3/4 WCI  17
GRAND MARAIS     N/A     19  13  77 NE13G22   29.80  WCI   6
G MARAIS ARPRT LGT SNOW   9   3  78 N15       29.73S WCI  -8
$$
MNZ029>031-032-039>041-046>048-054>057-064-190000-
   West Central Minnesota

CITY           SKY/WX    TMP DP  RH WIND       PRES   REMARKS
FERGUS FALLS   FAIR      21  14  73 NE12      29.71R WCI   9
WHEATON        CLOUDY    25  16  68 N15       29.74R WCI  12
MORRIS         CLOUDY    28  16  59 N15G21    29.65R WCI  17
ALEXANDRIA     LGT SNOW  22  17  81 N15       29.65R WCI   9
ELBOW LAKE     FAIR      22  15  75 NE13G18   29.69R WCI  10
WADENA         FAIR      19  12  73 NE15G22   29.68S WCI   5
GLENWOOD       FAIR      27  18  69 N18G24    29.62S WCI  13
APPLETON       CLOUDY    34  19  55 N20       29.64R WCI  22
BENSON         CLOUDY    32  18  55 NE16G23   29.63R WCI  21
ORTONVILLE     CLOUDY    27  16  63 N25G32    29.67R WCI  11
MADISON        CLOUDY    34  21  60 N25G32    29.63R WCI  21
WILLMAR        FAIR      41  25  52 NW13      29.59R
$$
MNZ033>034-036-042>043-049>051-058-059-190000-
   Central Minnesota

CITY           SKY/WX    TMP DP  RH WIND       PRES   REMARKS
ST CLOUD       FAIR      39  31  72 S10       29.58R
SAUK CENTRE    FAIR      28  16  62 N16       29.62R WCI  15
PAYNESVILLE    CLOUDY    36  26  67 N14G21    29.59R
AITKIN         FLURRIES  19  16  86 N8        29.68R WCI   9
PINE RIVER     CLOUDY    18  12  79 N13       29.74R WCI   4
BRAINERD       CLOUDY    22  14  71 NE10      29.68R WCI  11
STAPLES        MOCLDY    19  12  73 N7        29.69R WCI  10
LONG PRAIRIE   LGT SNOW  25  18  74 NW14      29.64R WCI  13
LITTLE FALLS   CLOUDY    28  12  50 N8        29.65R WCI  20
LITCHFIELD     FAIR      45  30  57 CALM      29.57R
BUFFALO        FAIR      41  32  70 S7        29.61R
MAPLE LAKE     FAIR      41  33  73 S6        29.60R
HUTCHINSON     FAIR      42  33  69 S7        29.58S
$$
MNZ037-044-045-052-053-190000-
   East Central Minnesota

CITY           SKY/WX    TMP DP  RH WIND       PRES   REMARKS
PRINCETON      FAIR      41  32  70 S6        29.60R
MORA           FAIR      34  27  75 NE5       29.63R WCI  30
CAMBRIDGE      FAIR      43  30  61 S6        29.61R
RUSH CITY      CLOUDY    39  30  70 SE5       29.62R
MOOSE LAKE     LGT SNOW  23  19  86 NE7       29.66R WCI  15
HINCKLEY       FLURRIES  30  19  64 N12       29.63R WCI  21
CLOQUET        LGT SNOW  21  19  93 NE5       29.68R VSB 3/4 WCI  15
MCGREGOR       CLOUDY    23  19  86 N8        29.70R WCI  14
$$
MNZ071>073-080-081-089-090-097-098-190000-
   Southwest Minnesota

CITY           SKY/WX    TMP DP  RH WIND       PRES   REMARKS
MONTEVIDEO     CLOUDY    37  23  56 N17       29.60R
GRANITE FALLS  CLOUDY    42  27  54 NW17      29.60R
CANBY          CLOUDY    32  22  67 NW17G26   29.64R WCI  21
MARSHALL       CLOUDY    38  25  59 N22       29.59R
REDWOOD FALLS  CLOUDY    42  31  64 SW13      29.57R
OLIVIA         CLOUDY    45  28  53 NW8       29.55S
PIPESTONE      CLOUDY    39  32  75 W3        29.56R
WINDOM         CLOUDY    39  21  48 S10       29.57S
WORTHINGTON    CLOUDY    40  32  73 S9        29.57R
JACKSON        CLOUDY    39  32  75 S9        29.59R
TRACY          CLOUDY    44  33  66 SW9       29.57R
SLAYTON        CLOUDY    39  33  77 SW7       29.57R
$$
MNZ065>067-074>077-082>085-091>093-190000-
   South Central Minnesota

CITY           SKY/WX    TMP DP  RH WIND       PRES   REMARKS
MANKATO        FAIR      40  31  70 S15       29.61R
NEW ULM        PTCLDY    37  30  75 S8        29.59R
ST JAMES       CLOUDY    37  32  81 S7        29.61R
FAIRMONT       PTCLDY    38  31  76 S9        29.61R
GLENCOE        FAIR      40  33  76 S7        29.59R
FARIBAULT      FAIR      39  30  70 S7        29.63S
OWATONNA       FAIR      39  32  75 S16       29.62S
WASECA         FAIR      39  32  75 S15       29.63S
ALBERT LEA     FAIR      41  28  60 S13       29.63S
$$
MNZ078>079-086>088-094>096-190000-
   Southeast Minnesota

CITY           SKY/WX    TMP DP  RH WIND       PRES   REMARKS
ROCHESTER      FAIR      37  29  72 S20G32    29.66F
RED WING       FAIR      43  25  49 S10G22    29.66S
STANTON        FAIR      40  32  71 S15G21    29.62S
DODGE CENTER   FAIR      37  28  70 S21       29.64S
WINONA         FAIR      41  27  56 S8        29.70F
AUSTIN         FAIR      39  28  65 S12G18    29.65S
PRESTON        FAIR      37  28  72 S15G24    29.70R
$$
ABBREVIATIONS USED IN REMARKS
   TC - TEMPERATURES IN CELSIUS
  WCI - WIND CHILL INDEX
   HX - HEAT INDEX
  VSB - VISIBILITY
$$



USA.gov is the U.S. government's official web portal to all federal, state and local government web resources and services.